GFSMA_700_rhum_354.txt.gz
RH
95 98 100 99 99 99 98 98 100 100 100 99 99 99 99 98 97 99 100 100 98 98 94 80 89 88 84 78 74 74 70 58 32 28 26 23 26 50 70 80 85 89 91
93 99 96 100 99 96 86 84 87 83 82 76 76 82 70 60 64 84 90 96 98 100 100 98 98 95 85 86 92 95 94 91 91 80 54 53 45 35 50 70 74 76 81
90 94 97 94 87 80 74 49 41 38 28 17 12 11 11 9 10 11 11 15 21 22 22 40 71 77 96 90 76 60 54 56 71 84 86 89 80 72 68 57 60 68 74
86 95 92 84 75 65 32 14 12 11 11 10 10 10 10 9 9 9 8 8 8 8 8 8 8 9 9 8 8 7 7 7 8 9 14 30 58 87 90 85 81 78 74
81 82 74 54 32 20 14 14 14 14 14 13 12 12 12 12 12 12 12 12 11 11 11 11 11 10 10 10 10 10 9 9 9 9 8 8 8 9 26 61 88 94 93
77 76 59 30 19 16 15 17 18 18 17 16 15 15 15 15 14 14 14 14 13 13 13 13 12 12 11 11 10 10 10 9 9 9 9 8 8 8 8 8 8 13 30
71 54 32 22 19 19 22 24 24 22 20 19 18 17 16 16 15 15 15 15 15 14 14 13 12 11 11 11 10 10 10 10 10 11 11 11 11 11 10 10 9 8 8
39 33 29 27 28 28 30 30 29 27 24 23 21 19 18 17 17 17 17 16 15 14 14 13 13 13 13 12 12 12 12 13 13 13 14 14 15 15 15 15 15 14 13
42 40 38 36 35 37 38 37 35 32 29 26 24 21 20 19 19 18 17 17 16 16 16 16 15 15 15 15 15 16 16 16 16 17 17 18 19 19 20 20 21 20 20
51 48 45 44 44 45 45 44 41 37 34 30 26 24 22 22 21 20 20 20 21 22 23 24 23 21 19 19 18 18 19 19 19 19 20 21 23 25 27 28 27 26 25
60 55 52 50 50 50 50 48 45 41 38 33 29 26 25 24 24 24 24 24 25 25 26 25 24 22 21 20 20 19 19 20 21 22 24 26 28 29 29 29 28 28 27
66 60 57 54 54 52 52 50 47 44 40 36 32 29 28 28 28 28 30 30 30 28 27 25 24 22 21 21 20 21 22 24 26 27 30 31 32 31 30 27 26 25 25
74 65 57 55 53 53 51 49 46 44 41 38 34 32 32 32 32 33 34 36 39 34 30 28 26 25 25 25 26 27 29 31 32 34 33 32 29 27 25 23 21 20 19
90 87 70 60 51 48 48 47 45 43 39 37 36 34 35 36 36 38 39 45 42 35 32 31 31 31 31 32 34 34 35 36 36 34 32 29 26 24 23 22 20 19 18
94 90 82 66 54 45 46 46 43 41 40 39 39 38 39 40 41 42 50 53 42 39 37 37 37 38 39 40 41 41 41 39 37 34 31 28 25 23 21 20 18 17 17
95 94 93 92 75 48 42 56 62 76 84 83 80 76 52 44 46 48 49 46 45 43 41 42 42 41 42 43 45 44 43 40 36 31 28 25 22 21 19 18 17 16 15
96 96 96 95 85 94 96 96 94 94 91 86 74 64 56 49 51 54 50 50 49 49 47 47 46 45 46 48 48 45 41 36 32 28 25 23 21 19 18 17 16 15 14
97 97 96 96 96 93 83 76 87 94 94 94 71 54 76 91 85 57 54 55 56 55 52 50 50 52 51 47 43 38 35 31 28 25 22 20 19 17 16 14 14 13 12
96 96 96 96 96 96 96 94 93 84 67 70 92 92 72 56 54 56 59 60 60 59 57 56 55 53 48 43 38 34 31 28 25 22 20 18 16 14 12 11 10 9 8
85 68 60 54 49 43 42 40 42 67 93 94 92 86 82 89 82 67 64 64 64 63 64 62 58 52 46 41 36 32 28 26 22 19 16 14 11 10 8 7 6 6 5
96 85 71 65 58 52 65 90 96 96 96 96 96 96 97 91 84 85 78 71 70 69 68 65 59 53 46 41 36 32 28 23 19 14 12 10 8 7 6 5 5 5 5
98 97 98 97 97 97 97 97 97 96 96 96 96 96 96 96 96 90 82 78 76 75 72 67 61 54 47 41 36 30 23 17 15 11 9 8 7 7 7 7 7 6 6
97 98 98 98 98 98 98 98 97 97 96 97 97 96 96 97 97 93 90 87 81 77 71 66 61 52 45 39 31 23 16 12 9 8 7 7 8 8 8 9 10 10 10
97 98 98 98 97 97 98 98 98 97 96 93 93 93 95 95 95 97 94 89 85 79 73 61 52 46 39 31 22 15 11 9 8 8 9 8 10 10 12 12 13 14 15
99 98 99 99 98 98 99 99 99 98 97 96 95 91 86 83 85 88 88 86 80 74 63 51 42 31 24 19 14 13 13 14 10 10 13 16 16 17 17 17 17 18 18
100 100 99 100 100 98 100 100 100 98 96 96 93 89 84 82 84 88 90 85 79 69 56 41 28 24 20 18 21 24 25 25 23 20 21 26 23 23 21 21 21 21 21

GFSMA_700_rhum_357.txt.gz
RH
99 94 99 98 99 100 99 98 93 96 96 93 90 90 96 96 92 90 75 59 54 52 51 56 61 71 73 61 53 54 56 55 46 32 28 26 24 28 50 67 80 84 85
84 75 92 100 92 100 100 100 99 99 100 100 97 98 99 100 100 99 98 98 92 87 85 84 87 88 88 84 90 94 95 93 91 90 85 60 52 46 39 43 60 70 79
94 99 94 93 100 100 94 98 99 92 92 91 93 84 76 79 80 74 88 73 91 90 98 88 98 96 96 96 88 94 83 66 60 69 83 86 86 86 74 70 64 58 62
94 100 96 93 96 100 100 99 88 72 59 70 85 55 20 16 13 11 12 13 10 14 12 10 9 9 14 11 30 17 10 8 7 7 8 12 22 36 63 90 90 83 80
86 93 93 99 84 93 86 60 50 29 19 15 12 12 11 11 10 10 10 9 9 9 9 9 9 9 9 9 9 9 9 9 9 9 9 9 8 8 8 10 27 54 78
85 94 98 100 96 89 67 44 31 15 14 13 14 14 13 12 12 12 12 12 12 12 12 12 12 12 12 12 12 11 11 10 10 10 9 9 9 9 8 8 8 8 8
96 96 92 97 85 68 36 20 18 17 18 18 18 17 16 15 15 15 14 14 14 14 14 14 14 13 13 12 12 11 11 10 10 10 10 11 11 11 11 11 10 10 10
90 89 93 89 66 35 23 20 20 22 23 23 22 21 20 18 17 16 16 15 16 16 16 15 14 13 13 12 12 12 12 13 13 13 13 14 14 14 15 15 15 15 15
79 90 86 68 41 27 25 27 30 32 31 30 27 23 21 20 18 18 17 17 17 17 16 15 14 14 15 15 15 15 16 17 17 17 17 17 17 18 19 19 21 22 23
76 82 64 42 32 31 33 35 37 38 37 35 32 28 25 22 20 19 19 19 18 17 17 17 17 18 19 20 21 21 21 21 21 20 20 20 20 20 20 21 25 28 29
76 60 48 41 40 40 39 40 42 42 42 40 36 32 29 26 24 22 21 20 20 20 21 22 24 27 28 28 27 25 24 22 22 21 20 19 20 22 25 28 30 30 30
91 69 56 49 46 44 44 44 46 47 46 44 41 37 33 29 26 25 24 24 24 24 24 27 28 28 28 28 26 24 23 22 21 21 22 24 26 29 31 32 32 30 27
99 89 64 53 49 48 47 47 48 48 48 46 43 40 36 32 29 28 27 27 28 28 30 31 33 37 38 36 30 26 24 24 24 26 29 31 33 34 34 32 29 26 24
96 91 71 53 47 45 44 44 46 47 47 46 44 42 39 35 32 31 30 31 32 33 36 40 48 50 43 36 31 28 27 28 30 32 34 35 36 35 33 29 27 25 23
96 94 88 61 47 43 40 41 43 43 43 42 41 41 40 37 34 34 33 34 36 38 39 41 48 44 37 35 33 32 33 34 35 36 37 38 37 35 32 29 26 23 21
96 96 95 90 57 52 47 42 38 37 38 38 37 38 36 36 36 37 37 39 40 41 44 53 54 45 41 40 39 38 39 39 40 41 41 40 38 35 30 27 24 22 20
96 96 95 95 94 93 55 41 38 35 34 35 36 37 37 38 39 42 54 50 46 48 49 50 49 48 46 46 46 45 44 44 44 44 42 39 34 31 28 25 23 22 20
96 96 96 96 96 91 84 87 66 51 60 77 79 95 92 92 93 95 92 86 76 71 62 57 52 52 52 52 51 49 49 48 48 45 40 35 31 28 26 23 21 20 18
96 95 96 97 97 96 96 96 96 96 96 96 96 96 95 95 95 95 94 92 95 90 74 58 55 56 56 56 53 53 53 51 46 41 36 32 28 26 23 21 19 18 16
97 97 97 96 96 96 96 97 97 96 96 97 96 96 95 96 96 93 96 96 93 84 75 62 60 60 59 59 57 56 54 50 45 38 34 30 27 24 22 20 18 16 15
96 97 97 97 97 97 97 97 96 96 96 96 96 97 96 96 96 96 96 96 96 95 90 84 76 76 68 63 61 57 54 50 44 38 33 30 26 23 21 19 17 15 14
96 97 97 97 97 96 97 96 96 96 96 95 96 96 96 96 95 95 96 95 94 94 94 93 91 82 72 66 64 60 56 52 46 40 34 30 26 24 21 18 16 13 12
98 98 98 97 97 97 98 98 97 97 97 97 97 98 97 97 97 96 96 95 94 94 92 91 86 79 73 67 63 60 57 52 46 40 35 31 27 24 19 15 11 9 8
98 99 99 99 98 98 99 99 99 98 97 96 96 96 97 98 97 97 96 96 96 96 96 96 86 76 68 64 62 61 58 52 46 41 36 32 26 20 14 12 9 8 8
100 99 99 99 99 100 100 100 100 99 99 98 96 96 94 94 97 98 97 96 96 95 96 95 90 85 78 72 69 66 60 54 48 42 34 26 19 15 13 11 10 10 11
99 99 98 99 100 99 99 100 100 99 99 99 100 100 98 97 96 98 97 98 94 91 91 85 82 80 78 76 74 65 58 53 46 42 29 24 20 19 17 16 16 17 18

GFSMA_700_rhum_360.txt.gz
RH
95 94 85 92 90 83 89 91 91 94 95 75 67 67 69 63 58 56 55 67 76 83 81 81 88 79 62 56 51 48 45 43 40 34 29 29 32 36 48 66 79 86 86
98 95 89 95 91 99 99 98 97 97 96 91 90 91 94 96 92 75 60 55 52 53 52 59 64 72 91 90 90 91 90 94 91 90 87 75 51 45 40 39 53 68 75
88 83 97 99 99 95 97 99 100 100 99 100 100 99 100 100 99 99 98 97 98 97 99 99 98 96 93 87 80 89 95 97 95 85 84 86 85 86 82 72 67 63 61
97 96 84 79 93 100 100 100 100 100 100 100 100 100 100 100 100 78 99 99 95 96 97 98 99 96 74 90 92 72 63 61 30 19 20 19 25 34 54 55 77 86 84
82 92 96 71 94 100 100 99 99 99 100 100 99 93 92 94 77 84 66 32 24 42 44 36 20 12 9 9 9 8 9 8 8 8 8 8 7 7 8 8 8 14 31
90 92 95 97 100 98 95 98 100 100 99 98 84 92 66 26 13 13 12 12 11 10 10 10 10 10 10 10 10 10 10 10 10 10 10 10 10 9 9 9 9 8 8
96 96 96 92 99 100 98 86 82 91 67 37 18 15 15 14 14 13 12 12 12 12 12 12 12 12 12 12 12 12 12 12 11 10 10 10 10 10 10 10 10 10 10
99 99 100 86 99 100 96 92 68 44 27 22 17 17 17 16 15 15 14 15 15 14 14 14 14 14 14 14 14 13 12 12 12 12 12 12 12 12 13 13 13 13 14
99 99 98 98 100 100 99 88 64 33 23 20 20 20 21 19 18 17 17 17 16 16 16 16 16 15 15 14 13 13 13 13 14 14 15 15 16 16 16 16 17 18 19
100 99 99 100 99 100 90 62 32 26 24 24 27 28 26 23 20 19 18 18 17 17 17 17 17 16 15 15 15 15 16 17 18 19 20 21 21 20 21 21 20 20 22
100 98 99 99 100 99 65 38 30 27 28 30 32 32 31 29 26 22 20 19 19 19 18 18 17 17 17 17 19 22 26 27 28 28 27 27 25 24 22 20 20 22 26
94 99 92 98 98 78 52 35 31 32 34 36 37 37 34 31 30 27 25 23 21 20 20 20 20 20 21 23 26 29 30 30 30 30 28 26 24 22 21 22 26 29 31
100 100 91 93 78 57 42 36 36 37 38 39 40 41 39 36 34 31 27 26 24 23 23 22 22 23 24 27 29 30 34 40 38 33 29 25 24 24 26 29 32 34 33
98 99 99 90 71 55 45 42 41 39 40 40 41 40 40 40 37 35 32 29 26 26 25 25 26 28 30 32 38 50 52 46 37 30 27 26 27 30 32 34 35 34 31
96 97 96 96 75 59 48 43 41 40 41 41 41 42 42 41 38 37 34 31 30 29 28 29 30 32 34 40 47 53 54 46 38 32 30 31 34 35 36 37 36 33 30
96 95 95 96 82 58 45 40 38 39 39 40 40 39 41 40 38 38 37 34 33 32 32 33 34 38 41 42 47 57 58 54 42 36 35 36 38 39 39 38 37 34 31
96 96 94 96 78 54 37 33 32 33 34 35 35 38 38 38 38 39 37 36 36 35 35 36 38 41 43 45 53 73 62 53 43 41 42 42 43 43 42 40 38 34 30
96 96 96 95 95 85 52 35 31 29 30 31 32 34 35 36 37 36 35 36 37 38 39 40 41 44 46 52 85 81 60 49 47 48 48 47 46 45 44 41 37 32 29
96 96 95 95 96 94 95 60 38 36 35 35 36 37 39 37 37 38 39 40 41 46 56 69 57 56 68 90 92 71 55 53 53 53 51 51 50 48 45 40 35 31 28
96 96 96 96 96 96 95 95 95 95 95 91 77 68 55 59 76 85 89 85 86 89 93 95 96 96 95 95 93 81 60 58 58 58 57 56 52 48 44 39 34 30 27
96 96 96 96 96 97 97 97 96 96 95 95 94 92 92 94 95 94 95 95 95 95 95 95 95 94 95 96 95 94 86 72 64 62 59 56 52 49 45 40 35 31 27
97 97 97 97 96 96 96 96 97 97 97 96 96 97 96 96 96 96 96 95 95 94 95 95 95 95 95 96 95 94 93 94 78 68 61 57 52 50 47 43 38 32 29
97 97 97 97 97 98 98 98 98 97 97 96 96 97 96 97 97 96 96 96 96 96 95 94 93 92 90 96 97 95 95 95 82 67 60 54 51 47 46 43 39 36 33
97 96 96 97 97 97 98 98 98 97 97 96 96 96 96 96 96 96 97 96 96 95 96 96 92 92 92 96 94 90 93 89 80 72 61 53 51 48 47 45 42 38 36
99 99 99 98 98 97 99 99 100 99 99 98 98 97 98 98 98 99 98 99 99 97 96 97 98 98 98 89 86 91 94 89 78 69 62 56 54 50 48 44 42 40 38
100 100 100 100 100 99 99 99 99 98 98 98 100 98 98 98 99 99 98 98 96 97 100 100 98 98 99 97 99 94 86 78 74 70 69 64 60 56 50 47 45 42 38

GFSMA_700_rhum_363.txt.gz
RH
61 74 67 63 62 79 90 82 78 72 70 79 71 54 58 60 57 66 87 95 100 99 97 94 92 90 86 80 76 70 57 44 40 39 42 50 54 53 54 76 84 89 84
92 85 86 81 78 74 75 76 79 78 78 76 67 61 68 67 68 61 67 90 95 99 99 98 93 93 78 65 58 53 53 57 70 77 75 59 39 33 31 34 48 61 68
96 100 95 87 85 84 96 94 95 95 99 92 99 79 71 70 73 67 63 69 83 87 88 86 80 70 74 92 92 92 91 92 94 94 92 90 88 84 76 65 61 61 61
93 96 89 99 86 96 96 100 98 100 100 99 96 93 93 95 97 99 98 95 86 83 96 98 97 98 96 100 98 94 80 90 96 95 84 59 60 65 68 73 78 80 83
80 91 91 80 88 97 99 99 100 100 100 98 100 100 100 100 100 100 99 99 99 100 99 99 99 100 99 99 75 87 55 50 35 35 12 8 8 7 7 8 8 12 19
80 78 80 96 97 94 89 95 100 100 100 98 100 100 100 100 100 99 96 99 100 81 46 38 43 64 59 28 9 9 8 8 8 8 8 9 9 9 9 9 9 9 8
86 86 74 80 97 98 91 73 100 99 100 100 98 100 100 98 99 100 99 33 23 15 15 19 12 10 9 8 10 10 11 11 11 11 11 11 10 10 10 10 9 9 9
94 99 98 97 100 99 98 85 99 82 98 100 100 100 100 98 74 44 17 14 14 13 12 12 12 12 12 12 13 13 13 13 12 12 12 11 11 11 12 12 12 12 13
100 100 100 100 100 99 98 92 97 100 96 88 94 92 53 33 21 16 15 14 14 13 13 13 13 13 14 14 14 14 14 14 13 12 12 13 13 13 14 15 16 16 17
99 100 100 95 99 97 100 99 99 99 91 69 50 35 27 31 22 19 18 17 17 16 16 15 15 15 15 15 15 15 15 14 14 14 14 15 17 19 20 22 22 22 22
92 100 100 92 84 99 97 100 99 99 93 67 36 28 25 23 22 20 20 20 18 18 18 17 17 16 17 17 16 16 15 15 16 18 22 26 28 28 28 27 26 26 24
98 100 97 100 93 99 100 94 87 99 88 50 34 27 26 27 28 28 26 23 20 19 19 19 18 18 18 18 17 17 17 19 23 29 32 32 32 32 31 29 26 24 23
98 100 100 100 99 99 94 99 100 96 74 46 32 30 30 31 31 30 30 28 26 24 22 21 20 19 19 19 19 20 21 24 28 30 32 37 43 42 38 32 27 24 25
99 100 99 99 100 100 99 99 100 87 46 37 32 32 32 33 34 35 34 32 30 28 26 24 23 22 22 21 22 22 24 27 30 34 44 52 51 45 38 32 27 26 29
98 98 99 100 99 100 99 100 88 57 40 35 33 33 34 35 37 37 37 37 36 34 30 29 26 25 24 24 25 26 28 31 36 47 54 56 51 45 37 31 28 30 32
97 97 97 98 97 96 96 89 66 48 38 35 34 34 35 36 37 38 38 39 38 37 36 33 30 28 27 27 28 30 31 35 42 49 55 57 56 51 41 34 32 35 37
97 97 98 96 96 95 93 66 32 34 33 33 32 33 34 34 36 35 36 37 38 38 37 35 34 32 31 31 31 32 35 42 46 47 52 62 66 56 42 36 37 40 40
96 97 96 96 95 95 94 76 29 26 27 26 27 28 30 32 32 34 35 36 35 35 36 36 34 35 34 34 35 36 37 41 45 48 55 69 67 57 47 41 43 43 42
98 95 96 95 96 96 94 93 53 36 28 27 27 28 28 29 30 32 33 34 34 34 34 35 35 36 37 37 37 39 40 43 45 48 66 76 66 57 48 46 46 46 46
95 96 94 97 97 98 95 96 94 90 60 37 33 32 34 34 34 34 35 36 36 37 38 41 39 39 40 41 42 48 71 76 68 75 80 76 68 58 51 50 50 51 50
96 96 95 96 95 95 94 97 98 97 97 94 89 65 50 46 44 44 45 46 47 52 67 83 60 62 71 69 89 95 94 95 91 92 89 87 79 63 56 55 56 54 51
97 96 96 96 96 96 97 97 96 96 95 95 97 97 96 96 95 95 95 95 95 96 96 95 95 94 95 94 94 92 90 90 87 89 87 86 87 82 79 70 62 56 51
98 99 100 98 96 97 97 97 96 96 96 96 96 95 96 97 96 96 97 98 96 95 96 96 95 94 94 95 95 94 93 92 88 87 84 79 81 80 80 78 66 56 49
98 98 98 98 98 100 100 98 98 97 96 96 96 96 96 95 96 97 96 96 95 94 95 95 92 95 96 95 92 91 90 86 83 82 82 78 79 78 81 78 69 60 52
99 98 98 98 97 98 99 99 99 98 99 97 96 98 99 98 97 98 97 98 97 97 98 98 97 96 92 90 92 92 93 92 88 87 89 83 80 86 87 79 72 63 56
88 95 98 99 98 97 98 98 99 98 97 97 98 96 90 85 92 97 97 97 94 94 97 99 98 96 97 97 99 98 95 89 87 84 89 94 94 94 86 79 73 65 61